User: anonymous   Login
Location: Erp
(42.9417°N, 1.2009°E)
Time: 06:18:57
(UTC+00:00)
Language:

BREEZE-M DEB (TANK) - Orbit

View from above orbital plane
View from above orbital plane
View from above satellite
View from above satellite

Ground track
Ground track

The orbit is defined by the following mean orbital elements,

1 37187U          26067.88002028 +.00000000 +00000-0 +19805-2 0 00003
2 37187  49.5417 234.1077 5100536 138.2032 274.8106  5.40459957    07
Epoch (UTC): 08 March 2026 21:07:13
Eccentricity: 0.5100536
inclination: 49.5417°
perigee height: 342 km
apogee height: 14334 km
right ascension of ascending node: 234.1077°
argument of perigee: 138.2032°
revolutions per day: 5.40459957
mean anomaly at epoch: 274.8106°

The dashed part of the orbit path shows where the satellite is in the earth's shadow,  

DLR